Year,Month,Day,Hour,Minute,Value (Times are PST for temperature in C)
2014,10,12,00,00,13.20
2014,10,12,00,01,13.10
2014,10,12,00,02,13.00
2014,10,12,00,03,13.00
2014,10,12,00,04,12.90
2014,10,12,00,05,12.80
2014,10,12,00,06,12.80
2014,10,12,00,07,12.70
2014,10,12,00,08,12.60
2014,10,12,00,09,12.60
2014,10,12,00,10,12.50
2014,10,12,00,11,12.40
2014,10,12,00,12,12.40
2014,10,12,00,13,12.40
2014,10,12,00,14,12.30
2014,10,12,00,15,12.30
2014,10,12,00,16,12.30
2014,10,12,00,17,12.30
2014,10,12,00,18,12.20
2014,10,12,00,19,12.20
2014,10,12,00,20,12.20
2014,10,12,00,21,12.30
2014,10,12,00,22,12.30
2014,10,12,00,23,12.40
2014,10,12,00,24,12.40
2014,10,12,00,25,12.50
2014,10,12,00,26,12.60
2014,10,12,00,27,12.60
2014,10,12,00,28,12.60
2014,10,12,00,29,12.60
2014,10,12,00,30,12.70
2014,10,12,00,31,12.70
2014,10,12,00,32,12.70
2014,10,12,00,33,12.80
2014,10,12,00,34,12.80
2014,10,12,00,35,12.80
2014,10,12,00,36,12.80
2014,10,12,00,37,12.80
2014,10,12,00,38,12.70
2014,10,12,00,39,12.70
2014,10,12,00,40,12.70
2014,10,12,00,41,12.80
2014,10,12,00,42,12.70
2014,10,12,00,43,12.70
2014,10,12,00,44,12.70
2014,10,12,00,45,12.60
2014,10,12,00,46,12.60
2014,10,12,00,47,12.50
2014,10,12,00,48,12.50
2014,10,12,00,49,12.40
2014,10,12,00,50,12.40
2014,10,12,00,51,12.40
2014,10,12,00,52,12.40
2014,10,12,00,53,12.40
2014,10,12,00,54,12.40
2014,10,12,00,55,12.40
2014,10,12,00,56,12.40
2014,10,12,00,57,12.30
2014,10,12,00,58,12.30
2014,10,12,00,59,12.30
2014,10,12,01,00,12.30
2014,10,12,01,01,12.30
2014,10,12,01,02,12.30
2014,10,12,01,03,12.30
2014,10,12,01,04,12.30
2014,10,12,01,05,12.30
2014,10,12,01,06,12.30
2014,10,12,01,07,12.30
2014,10,12,01,08,12.30
2014,10,12,01,09,12.30
2014,10,12,01,10,12.30
2014,10,12,01,11,12.30
2014,10,12,01,12,12.30
2014,10,12,01,13,12.30
2014,10,12,01,14,12.20
2014,10,12,01,15,12.20
2014,10,12,01,16,12.20
2014,10,12,01,17,12.30
2014,10,12,01,18,12.30
2014,10,12,01,19,12.40
2014,10,12,01,20,12.50
2014,10,12,01,21,12.70
2014,10,12,01,22,12.90
2014,10,12,01,23,13.10
2014,10,12,01,24,13.20
2014,10,12,01,25,13.30
2014,10,12,01,26,13.40
2014,10,12,01,27,13.40
2014,10,12,01,28,13.50
2014,10,12,01,29,13.40
2014,10,12,01,30,13.30
2014,10,12,01,31,13.30
2014,10,12,01,32,13.20
2014,10,12,01,33,13.20
2014,10,12,01,34,13.20
2014,10,12,01,35,13.20
2014,10,12,01,36,13.30
2014,10,12,01,37,13.50
2014,10,12,01,38,13.70
2014,10,12,01,39,13.80
2014,10,12,01,40,13.90
2014,10,12,01,41,14.00
2014,10,12,01,42,14.10
2014,10,12,01,43,14.10
2014,10,12,01,44,14.20
2014,10,12,01,45,14.10
2014,10,12,01,46,14.10
2014,10,12,01,47,14.00
2014,10,12,01,48,13.90
2014,10,12,01,49,13.70
2014,10,12,01,50,13.60
2014,10,12,01,51,13.60
2014,10,12,01,52,13.60
2014,10,12,01,53,13.60
2014,10,12,01,54,13.60
2014,10,12,01,55,13.60
2014,10,12,01,56,13.60
2014,10,12,01,57,13.60
2014,10,12,01,58,13.70
2014,10,12,01,59,13.60
2014,10,12,02,00,13.50
2014,10,12,02,01,13.50
2014,10,12,02,02,13.40
2014,10,12,02,03,13.40
2014,10,12,02,04,13.40
2014,10,12,02,05,13.40
2014,10,12,02,06,13.40
2014,10,12,02,07,13.30
2014,10,12,02,08,13.30
2014,10,12,02,09,13.20
2014,10,12,02,10,13.20
2014,10,12,02,11,13.30
2014,10,12,02,12,13.30
2014,10,12,02,13,13.40
2014,10,12,02,14,13.40
2014,10,12,02,15,13.40
2014,10,12,02,16,13.40
2014,10,12,02,17,13.50
2014,10,12,02,18,13.60
2014,10,12,02,19,13.60
2014,10,12,02,20,13.60
2014,10,12,02,21,13.60
2014,10,12,02,22,13.70
2014,10,12,02,23,13.70
2014,10,12,02,24,13.70
2014,10,12,02,25,13.80
2014,10,12,02,26,13.70
2014,10,12,02,27,13.70
2014,10,12,02,28,13.60
2014,10,12,02,29,13.50
2014,10,12,02,30,13.40
2014,10,12,02,31,13.50
2014,10,12,02,32,13.50
2014,10,12,02,33,13.50
2014,10,12,02,34,13.60
2014,10,12,02,35,13.60
2014,10,12,02,36,13.60
2014,10,12,02,37,13.60
2014,10,12,02,38,13.60
2014,10,12,02,39,13.50
2014,10,12,02,40,13.40
2014,10,12,02,41,13.50
2014,10,12,02,42,13.50
2014,10,12,02,43,13.60
2014,10,12,02,44,13.70
2014,10,12,02,45,13.70
2014,10,12,02,46,13.80
2014,10,12,02,47,13.80
2014,10,12,02,48,13.80
2014,10,12,02,49,13.70
2014,10,12,02,50,13.70
2014,10,12,02,51,13.60
2014,10,12,02,52,13.60
2014,10,12,02,53,13.50
2014,10,12,02,54,13.50
2014,10,12,02,55,13.60
2014,10,12,02,56,13.60
2014,10,12,02,57,13.50
2014,10,12,02,58,13.40
2014,10,12,02,59,13.40
2014,10,12,03,00,13.40
2014,10,12,03,01,13.30
2014,10,12,03,02,13.30
2014,10,12,03,03,13.30
2014,10,12,03,04,13.30
2014,10,12,03,05,13.30
2014,10,12,03,06,13.30
2014,10,12,03,07,13.20
2014,10,12,03,08,13.10
2014,10,12,03,09,13.10
2014,10,12,03,10,13.00
2014,10,12,03,11,12.90
2014,10,12,03,12,12.80
2014,10,12,03,13,12.80
2014,10,12,03,14,12.80
2014,10,12,03,15,12.80
2014,10,12,03,16,12.80
2014,10,12,03,17,12.90
2014,10,12,03,18,12.90
2014,10,12,03,19,12.90
2014,10,12,03,20,13.00
2014,10,12,03,21,13.10
2014,10,12,03,22,13.20
2014,10,12,03,23,13.30
2014,10,12,03,24,13.40
2014,10,12,03,25,13.40
2014,10,12,03,26,13.50
2014,10,12,03,27,13.50
2014,10,12,03,28,13.50
2014,10,12,03,29,13.40
2014,10,12,03,30,13.40
2014,10,12,03,31,13.40
2014,10,12,03,32,13.40
2014,10,12,03,33,13.40
2014,10,12,03,34,13.40
2014,10,12,03,35,13.40
2014,10,12,03,36,13.30
2014,10,12,03,37,13.30
2014,10,12,03,38,13.40
2014,10,12,03,39,13.40
2014,10,12,03,40,13.50
2014,10,12,03,41,13.50
2014,10,12,03,42,13.40
2014,10,12,03,43,13.30
2014,10,12,03,44,13.10
2014,10,12,03,45,13.10
2014,10,12,03,46,13.00
2014,10,12,03,47,12.80
2014,10,12,03,48,12.60
2014,10,12,03,49,12.50
2014,10,12,03,50,12.50
2014,10,12,03,51,12.40
2014,10,12,03,52,12.50
2014,10,12,03,53,12.60
2014,10,12,03,54,12.60
2014,10,12,03,55,12.70
2014,10,12,03,56,12.80
2014,10,12,03,57,12.80
2014,10,12,03,58,12.80
2014,10,12,03,59,12.80
2014,10,12,04,00,12.80
2014,10,12,04,01,12.80
2014,10,12,04,02,12.80
2014,10,12,04,03,12.70
2014,10,12,04,04,12.80
2014,10,12,04,05,12.80
2014,10,12,04,06,12.70
2014,10,12,04,07,12.70
2014,10,12,04,08,12.70
2014,10,12,04,09,12.70
2014,10,12,04,10,12.80
2014,10,12,04,11,12.80
2014,10,12,04,12,12.80
2014,10,12,04,13,12.80
2014,10,12,04,14,12.90
2014,10,12,04,15,12.90
2014,10,12,04,16,12.90
2014,10,12,04,17,12.90
2014,10,12,04,18,12.90
2014,10,12,04,19,12.90
2014,10,12,04,20,12.80
2014,10,12,04,21,12.80
2014,10,12,04,22,12.80
2014,10,12,04,23,12.80
2014,10,12,04,24,12.90
2014,10,12,04,25,12.90
2014,10,12,04,26,13.00
2014,10,12,04,27,13.10
2014,10,12,04,28,13.10
2014,10,12,04,29,13.20
2014,10,12,04,30,13.20
2014,10,12,04,31,13.30
2014,10,12,04,32,13.30
2014,10,12,04,33,13.30
2014,10,12,04,34,13.30
2014,10,12,04,35,13.30
2014,10,12,04,36,13.40
2014,10,12,04,37,13.40
2014,10,12,04,38,13.40
2014,10,12,04,39,13.40
2014,10,12,04,40,13.30
2014,10,12,04,41,13.30
2014,10,12,04,42,13.30
2014,10,12,04,43,13.40
2014,10,12,04,44,13.40
2014,10,12,04,45,13.50
2014,10,12,04,46,13.50
2014,10,12,04,47,13.60
2014,10,12,04,48,13.60
2014,10,12,04,49,13.60
2014,10,12,04,50,13.60
2014,10,12,04,51,13.60
2014,10,12,04,52,13.70
2014,10,12,04,53,13.70
2014,10,12,04,54,13.70
2014,10,12,04,55,13.70
2014,10,12,04,56,13.70
2014,10,12,04,57,13.70
2014,10,12,04,58,13.70
2014,10,12,04,59,13.60
2014,10,12,05,00,13.60
2014,10,12,05,01,13.60
2014,10,12,05,02,13.60
2014,10,12,05,03,13.60
2014,10,12,05,04,13.60
2014,10,12,05,05,13.60
2014,10,12,05,06,13.50
2014,10,12,05,07,13.50
2014,10,12,05,08,13.50
2014,10,12,05,09,13.50
2014,10,12,05,10,13.50
2014,10,12,05,11,13.60
2014,10,12,05,12,13.60
2014,10,12,05,13,13.60
2014,10,12,05,14,13.50
2014,10,12,05,15,13.50
2014,10,12,05,16,13.50
2014,10,12,05,17,13.40
2014,10,12,05,18,13.40
2014,10,12,05,19,13.40
2014,10,12,05,20,13.50
2014,10,12,05,21,13.60
2014,10,12,05,22,13.60
2014,10,12,05,23,13.70
2014,10,12,05,24,13.70
2014,10,12,05,25,13.80
2014,10,12,05,26,13.80
2014,10,12,05,27,13.80
2014,10,12,05,28,13.80
2014,10,12,05,29,13.70
2014,10,12,05,30,13.70
2014,10,12,05,31,13.70
2014,10,12,05,32,13.70
2014,10,12,05,33,13.70
2014,10,12,05,34,13.70
2014,10,12,05,35,13.60
2014,10,12,05,36,13.70
2014,10,12,05,37,13.70
2014,10,12,05,38,13.60
2014,10,12,05,39,13.60
2014,10,12,05,40,13.60
2014,10,12,05,41,13.60
2014,10,12,05,42,13.70
2014,10,12,05,43,13.70
2014,10,12,05,44,13.80
2014,10,12,05,45,13.80
2014,10,12,05,46,13.80
2014,10,12,05,47,13.80
2014,10,12,05,48,13.80
2014,10,12,05,49,13.80
2014,10,12,05,50,13.80
2014,10,12,05,51,13.80
2014,10,12,05,52,13.80
2014,10,12,05,53,13.80
2014,10,12,05,54,13.70
2014,10,12,05,55,13.60
2014,10,12,05,56,13.60
2014,10,12,05,57,13.60
2014,10,12,05,58,13.60
2014,10,12,05,59,13.60
2014,10,12,06,00,13.60
2014,10,12,06,01,13.60
2014,10,12,06,02,13.60
2014,10,12,06,03,13.60
2014,10,12,06,04,13.60
2014,10,12,06,05,13.60
2014,10,12,06,06,13.70
2014,10,12,06,07,13.70
2014,10,12,06,08,13.70
2014,10,12,06,09,13.70
2014,10,12,06,10,13.80
2014,10,12,06,11,13.80
2014,10,12,06,12,13.80
2014,10,12,06,13,13.90
2014,10,12,06,14,13.90
2014,10,12,06,15,13.90
2014,10,12,06,16,14.00
2014,10,12,06,17,14.00
2014,10,12,06,18,14.10
2014,10,12,06,19,14.10
2014,10,12,06,20,14.10
2014,10,12,06,21,14.10
2014,10,12,06,22,14.10
2014,10,12,06,23,14.10
2014,10,12,06,24,14.00
2014,10,12,06,25,14.00
2014,10,12,06,26,14.00
2014,10,12,06,27,13.90
2014,10,12,06,28,13.80
2014,10,12,06,29,13.70
2014,10,12,06,30,13.60
2014,10,12,06,31,13.40
2014,10,12,06,32,13.20
2014,10,12,06,33,13.10
2014,10,12,06,34,13.00
2014,10,12,06,35,13.00
2014,10,12,06,36,12.90
2014,10,12,06,37,12.90
2014,10,12,06,38,12.90
2014,10,12,06,39,12.90
2014,10,12,06,40,13.00
2014,10,12,06,41,13.10
2014,10,12,06,42,13.20
2014,10,12,06,43,13.30
2014,10,12,06,44,13.50
2014,10,12,06,45,13.60
2014,10,12,06,46,13.70
2014,10,12,06,47,13.80
2014,10,12,06,48,13.80
2014,10,12,06,49,13.80
2014,10,12,06,50,13.80
2014,10,12,06,51,13.80
2014,10,12,06,52,13.80
2014,10,12,06,53,13.90
2014,10,12,06,54,13.90
2014,10,12,06,55,13.90
2014,10,12,06,56,13.80
2014,10,12,06,57,13.70
2014,10,12,06,58,13.60
2014,10,12,06,59,13.50
2014,10,12,07,00,13.40
2014,10,12,07,01,13.40
2014,10,12,07,02,13.30
2014,10,12,07,03,13.20
2014,10,12,07,04,13.20
2014,10,12,07,05,13.10
2014,10,12,07,06,13.00
2014,10,12,07,07,12.90
2014,10,12,07,08,12.90
2014,10,12,07,09,12.90
2014,10,12,07,10,12.80
2014,10,12,07,11,12.80
2014,10,12,07,12,12.70
2014,10,12,07,13,12.70
2014,10,12,07,14,12.60
2014,10,12,07,15,12.50
2014,10,12,07,16,12.40
2014,10,12,07,17,12.30
2014,10,12,07,18,12.30
2014,10,12,07,19,12.20
2014,10,12,07,20,12.20
2014,10,12,07,21,12.20
2014,10,12,07,22,12.10
2014,10,12,07,23,12.10
2014,10,12,07,24,12.10
2014,10,12,07,25,12.10
2014,10,12,07,26,12.10
2014,10,12,07,27,12.10
2014,10,12,07,28,12.20
2014,10,12,07,29,12.20
2014,10,12,07,30,12.20
2014,10,12,07,31,12.20
2014,10,12,07,32,12.20
2014,10,12,07,33,12.20
2014,10,12,07,34,12.20
2014,10,12,07,35,12.20
2014,10,12,07,36,12.20
2014,10,12,07,37,12.20
2014,10,12,07,38,12.30
2014,10,12,07,39,12.30
2014,10,12,07,40,12.30
2014,10,12,07,41,12.40
2014,10,12,07,42,12.40
2014,10,12,07,43,12.40
2014,10,12,07,44,12.50
2014,10,12,07,45,12.40
2014,10,12,07,46,12.40
2014,10,12,07,47,12.40
2014,10,12,07,48,12.30
2014,10,12,07,49,12.10
2014,10,12,07,50,12.00
2014,10,12,07,51,11.90
2014,10,12,07,52,11.80
2014,10,12,07,53,11.80
2014,10,12,07,54,11.80
2014,10,12,07,55,11.80
2014,10,12,07,56,11.80
2014,10,12,07,57,11.80
2014,10,12,07,58,11.90
2014,10,12,07,59,11.90
2014,10,12,08,00,11.90
2014,10,12,08,01,11.90
2014,10,12,08,02,11.90
2014,10,12,08,03,11.90
2014,10,12,08,04,11.90
2014,10,12,08,05,11.90
2014,10,12,08,06,11.80
2014,10,12,08,07,11.70
2014,10,12,08,08,11.70
2014,10,12,08,09,11.70
2014,10,12,08,10,11.60
2014,10,12,08,11,11.60
2014,10,12,08,12,11.60
2014,10,12,08,13,11.70
2014,10,12,08,14,11.70
2014,10,12,08,15,11.70
2014,10,12,08,16,11.60
2014,10,12,08,17,11.50
2014,10,12,08,18,11.50
2014,10,12,08,19,11.50
2014,10,12,08,20,11.40
2014,10,12,08,21,11.30
2014,10,12,08,22,11.20
2014,10,12,08,23,11.20
2014,10,12,08,24,11.10
2014,10,12,08,25,11.10
2014,10,12,08,26,11.10
2014,10,12,08,27,11.10
2014,10,12,08,28,11.10
2014,10,12,08,29,11.20
2014,10,12,08,30,11.30
2014,10,12,08,31,11.40
2014,10,12,08,32,11.50
2014,10,12,08,33,11.60
2014,10,12,08,34,11.60
2014,10,12,08,35,11.60
2014,10,12,08,36,11.60
2014,10,12,08,37,11.60
2014,10,12,08,38,11.60
2014,10,12,08,39,11.60
2014,10,12,08,40,11.60
2014,10,12,08,41,11.60
2014,10,12,08,42,11.60
2014,10,12,08,43,11.50
2014,10,12,08,44,11.40
2014,10,12,08,45,11.30
2014,10,12,08,46,11.30
2014,10,12,08,47,11.30
2014,10,12,08,48,11.20
2014,10,12,08,49,11.20
2014,10,12,08,50,11.20
2014,10,12,08,51,11.10
2014,10,12,08,52,11.20
2014,10,12,08,53,11.20
2014,10,12,08,54,11.30
2014,10,12,08,55,11.50
2014,10,12,08,56,11.60
2014,10,12,08,57,11.60
2014,10,12,08,58,11.60
2014,10,12,08,59,11.60
2014,10,12,09,00,11.50
2014,10,12,09,01,11.40
2014,10,12,09,02,11.40
2014,10,12,09,03,11.30
2014,10,12,09,04,11.30
2014,10,12,09,05,11.30
2014,10,12,09,06,11.30
2014,10,12,09,07,11.30
2014,10,12,09,08,11.30
2014,10,12,09,09,11.30
2014,10,12,09,10,11.30
2014,10,12,09,11,11.30
2014,10,12,09,12,11.40
2014,10,12,09,13,11.40
2014,10,12,09,14,11.40
2014,10,12,09,15,11.40
2014,10,12,09,16,11.40
2014,10,12,09,17,11.40
2014,10,12,09,18,11.30
2014,10,12,09,19,11.30
2014,10,12,09,20,11.30
2014,10,12,09,21,11.30
2014,10,12,09,22,11.40
2014,10,12,09,23,11.40
2014,10,12,09,24,11.40
2014,10,12,09,25,11.50
2014,10,12,09,26,11.50
2014,10,12,09,27,11.60
2014,10,12,09,28,11.60
2014,10,12,09,29,11.60
2014,10,12,09,30,11.70
2014,10,12,09,31,11.70
2014,10,12,09,32,11.80
2014,10,12,09,33,11.80
2014,10,12,09,34,11.80
2014,10,12,09,35,11.80
2014,10,12,09,36,11.90
2014,10,12,09,37,11.80
2014,10,12,09,38,11.80
2014,10,12,09,39,11.80
2014,10,12,09,40,11.80
2014,10,12,09,41,11.70
2014,10,12,09,42,11.70
2014,10,12,09,43,11.60
2014,10,12,09,44,11.60
2014,10,12,09,45,11.50
2014,10,12,09,46,11.50
2014,10,12,09,47,11.40
2014,10,12,09,48,11.50
2014,10,12,09,49,11.50
2014,10,12,09,50,11.60
2014,10,12,09,51,11.60
2014,10,12,09,52,11.60
2014,10,12,09,53,11.60
2014,10,12,09,54,11.60
2014,10,12,09,55,11.70
2014,10,12,09,56,11.60
2014,10,12,09,57,11.60
2014,10,12,09,58,11.50
2014,10,12,09,59,11.50
2014,10,12,10,00,11.50
2014,10,12,10,01,11.50
2014,10,12,10,02,11.50
2014,10,12,10,03,11.50
2014,10,12,10,04,11.40
2014,10,12,10,05,11.40
2014,10,12,10,06,11.40
2014,10,12,10,07,11.40
2014,10,12,10,08,11.40
2014,10,12,10,09,11.30
2014,10,12,10,10,11.20
2014,10,12,10,11,11.10
2014,10,12,10,12,11.10
2014,10,12,10,13,11.10
2014,10,12,10,14,11.00
2014,10,12,10,15,11.00
2014,10,12,10,16,11.00
2014,10,12,10,17,11.00
2014,10,12,10,18,11.00
2014,10,12,10,19,11.20
2014,10,12,10,20,11.30
2014,10,12,10,21,11.50
2014,10,12,10,22,11.70
2014,10,12,10,23,11.90
2014,10,12,10,24,12.10
2014,10,12,10,25,12.20
2014,10,12,10,26,12.20
2014,10,12,10,27,12.10
2014,10,12,10,28,12.00
2014,10,12,10,29,11.90
2014,10,12,10,30,11.80
2014,10,12,10,31,11.70
2014,10,12,10,32,11.60
2014,10,12,10,33,11.50
2014,10,12,10,34,11.50
2014,10,12,10,35,11.40
2014,10,12,10,36,11.30
2014,10,12,10,37,11.30
2014,10,12,10,38,11.30
2014,10,12,10,39,11.30
2014,10,12,10,40,11.30
2014,10,12,10,41,11.30
2014,10,12,10,42,11.30
2014,10,12,10,43,11.30
2014,10,12,10,44,11.30
2014,10,12,10,45,11.20
2014,10,12,10,46,11.20
2014,10,12,10,47,11.20
2014,10,12,10,48,11.20
2014,10,12,10,49,11.10
2014,10,12,10,50,11.10
2014,10,12,10,51,11.10
2014,10,12,10,52,11.10
2014,10,12,10,53,11.00
2014,10,12,10,54,11.00
2014,10,12,10,55,11.00
2014,10,12,10,56,10.90
2014,10,12,10,57,10.90
2014,10,12,10,58,10.90
2014,10,12,10,59,10.90
2014,10,12,11,00,10.90
2014,10,12,11,01,10.90
2014,10,12,11,02,10.90
2014,10,12,11,03,10.90
2014,10,12,11,04,10.90
2014,10,12,11,05,11.00
2014,10,12,11,06,11.00
2014,10,12,11,07,11.00
2014,10,12,11,08,11.10
2014,10,12,11,09,11.10
2014,10,12,11,10,11.10
2014,10,12,11,11,11.10
2014,10,12,11,12,11.10
2014,10,12,11,13,11.20
2014,10,12,11,14,11.20
2014,10,12,11,15,11.20
2014,10,12,11,16,11.20
2014,10,12,11,17,11.10
2014,10,12,11,18,11.10
2014,10,12,11,19,11.10
2014,10,12,11,20,11.00
2014,10,12,11,21,11.00
2014,10,12,11,22,11.00
2014,10,12,11,23,11.00
2014,10,12,11,24,11.00
2014,10,12,11,25,11.10
2014,10,12,11,26,11.10
2014,10,12,11,27,11.20
2014,10,12,11,28,11.20
2014,10,12,11,29,11.20
2014,10,12,11,30,11.30
2014,10,12,11,31,11.30
2014,10,12,11,32,11.30
2014,10,12,11,33,11.30
2014,10,12,11,34,11.30
2014,10,12,11,35,11.30
2014,10,12,11,36,11.30
2014,10,12,11,37,11.30
2014,10,12,11,38,11.30
2014,10,12,11,39,11.20
2014,10,12,11,40,11.20
2014,10,12,11,41,11.20
2014,10,12,11,42,11.10
2014,10,12,11,43,11.10
2014,10,12,11,44,11.00
2014,10,12,11,45,11.00
2014,10,12,11,46,11.00
2014,10,12,11,47,10.90
2014,10,12,11,48,10.90
2014,10,12,11,49,10.90
2014,10,12,11,50,10.90
2014,10,12,11,51,10.90
2014,10,12,11,52,10.90
2014,10,12,11,53,10.90
2014,10,12,11,54,10.80
2014,10,12,11,55,10.80
2014,10,12,11,56,10.80
2014,10,12,11,57,10.90
2014,10,12,11,58,10.90
2014,10,12,11,59,10.90
2014,10,12,12,00,10.90
2014,10,12,12,01,10.90
2014,10,12,12,02,10.90
2014,10,12,12,03,10.90
2014,10,12,12,04,10.90
2014,10,12,12,05,10.90
2014,10,12,12,06,10.90
2014,10,12,12,07,11.00
2014,10,12,12,08,11.00
2014,10,12,12,09,11.00
2014,10,12,12,10,11.00
2014,10,12,12,11,11.00
2014,10,12,12,12,10.90
2014,10,12,12,13,11.00
2014,10,12,12,14,11.00
2014,10,12,12,15,11.00
2014,10,12,12,16,11.00
2014,10,12,12,17,11.00
2014,10,12,12,18,11.00
2014,10,12,12,19,11.00
2014,10,12,12,20,11.00
2014,10,12,12,21,11.00
2014,10,12,12,22,11.00
2014,10,12,12,23,11.00
2014,10,12,12,24,11.00
2014,10,12,12,25,11.00
2014,10,12,12,26,11.10
2014,10,12,12,27,11.10
2014,10,12,12,28,11.10
2014,10,12,12,29,11.10
2014,10,12,12,30,11.10
2014,10,12,12,31,11.10
2014,10,12,12,32,11.10
2014,10,12,12,33,11.10
2014,10,12,12,34,11.10
2014,10,12,12,35,11.20
2014,10,12,12,36,11.20
2014,10,12,12,37,11.20
2014,10,12,12,38,11.20
2014,10,12,12,39,11.20
2014,10,12,12,40,11.20
2014,10,12,12,41,11.20
2014,10,12,12,42,11.20
2014,10,12,12,43,11.20
2014,10,12,12,44,11.20
2014,10,12,12,45,11.20
2014,10,12,12,46,11.20
2014,10,12,12,47,11.20
2014,10,12,12,48,11.20
2014,10,12,12,49,11.20
2014,10,12,12,50,11.20
2014,10,12,12,51,11.30
2014,10,12,12,52,11.20
2014,10,12,12,53,11.30
2014,10,12,12,54,11.30
2014,10,12,12,55,11.30
2014,10,12,12,56,11.30
2014,10,12,12,57,11.30
2014,10,12,12,58,11.30
2014,10,12,12,59,11.30
2014,10,12,13,00,11.30
2014,10,12,13,01,11.30
2014,10,12,13,02,11.30
2014,10,12,13,03,11.40
2014,10,12,13,04,11.40
2014,10,12,13,05,11.40
2014,10,12,13,06,11.40
2014,10,12,13,07,11.40
2014,10,12,13,08,11.40
2014,10,12,13,09,11.50
2014,10,12,13,10,11.40
2014,10,12,13,11,11.50
2014,10,12,13,12,11.40
2014,10,12,13,13,11.40
2014,10,12,13,14,11.40
2014,10,12,13,15,11.40
2014,10,12,13,16,11.50
2014,10,12,13,17,11.40
2014,10,12,13,18,11.40
2014,10,12,13,19,11.40
2014,10,12,13,20,11.50
2014,10,12,13,21,11.50
2014,10,12,13,22,11.50
2014,10,12,13,23,11.50
2014,10,12,13,24,11.50
2014,10,12,13,25,11.50
2014,10,12,13,26,11.50
2014,10,12,13,27,11.50
2014,10,12,13,28,11.50
2014,10,12,13,29,11.50
2014,10,12,13,30,11.50
2014,10,12,13,31,11.50
2014,10,12,13,32,11.50
2014,10,12,13,33,11.50
2014,10,12,13,34,11.50
2014,10,12,13,35,11.50
2014,10,12,13,36,11.50
2014,10,12,13,37,11.50
2014,10,12,13,38,11.50
2014,10,12,13,39,11.50
2014,10,12,13,40,11.60
2014,10,12,13,41,11.60
2014,10,12,13,42,11.60
2014,10,12,13,43,11.60
2014,10,12,13,44,11.60
2014,10,12,13,45,11.60
2014,10,12,13,46,11.70
2014,10,12,13,47,11.70
2014,10,12,13,48,11.70
2014,10,12,13,49,11.70
2014,10,12,13,50,11.70
2014,10,12,13,51,11.70
2014,10,12,13,52,11.80
2014,10,12,13,53,11.80
2014,10,12,13,54,11.80
2014,10,12,13,55,11.80
2014,10,12,13,56,11.70
2014,10,12,13,57,11.70
2014,10,12,13,58,11.70
2014,10,12,13,59,11.70
2014,10,12,14,00,11.70
2014,10,12,14,01,11.70
2014,10,12,14,02,11.70
2014,10,12,14,03,11.70
2014,10,12,14,04,11.60
2014,10,12,14,05,11.60
2014,10,12,14,06,11.60
2014,10,12,14,07,11.60
2014,10,12,14,08,11.60
2014,10,12,14,09,11.60
2014,10,12,14,10,11.60
2014,10,12,14,11,11.60
2014,10,12,14,12,11.60
2014,10,12,14,13,11.60
2014,10,12,14,14,11.60
2014,10,12,14,15,11.60
2014,10,12,14,16,11.60
2014,10,12,14,17,11.60
2014,10,12,14,18,11.60
2014,10,12,14,19,11.60
2014,10,12,14,20,11.60
2014,10,12,14,21,11.60
2014,10,12,14,22,11.60
2014,10,12,14,23,11.60
2014,10,12,14,24,11.70
2014,10,12,14,25,11.70
2014,10,12,14,26,11.70
2014,10,12,14,27,11.70
2014,10,12,14,28,11.70
2014,10,12,14,29,11.60
2014,10,12,14,30,11.60
2014,10,12,14,31,11.60
2014,10,12,14,32,11.60
2014,10,12,14,33,11.70
2014,10,12,14,34,11.70
2014,10,12,14,35,11.70
2014,10,12,14,36,11.70
2014,10,12,14,37,11.70
2014,10,12,14,38,11.70
2014,10,12,14,39,11.70
2014,10,12,14,40,11.70
2014,10,12,14,41,11.70
2014,10,12,14,42,11.70
2014,10,12,14,43,11.80
2014,10,12,14,44,11.80
2014,10,12,14,45,11.90
2014,10,12,14,46,11.90
2014,10,12,14,47,11.90
2014,10,12,14,48,11.90
2014,10,12,14,49,11.90
2014,10,12,14,50,11.90
2014,10,12,14,51,11.90
2014,10,12,14,52,11.90
2014,10,12,14,53,12.10
2014,10,12,14,54,12.20
2014,10,12,14,55,12.20
2014,10,12,14,56,12.30
2014,10,12,14,57,12.30
2014,10,12,14,58,12.30
2014,10,12,14,59,12.40
2014,10,12,15,00,12.40
2014,10,12,15,01,12.50
2014,10,12,15,02,12.60
2014,10,12,15,03,12.70
2014,10,12,15,04,12.60
2014,10,12,15,05,12.60
2014,10,12,15,06,12.60
2014,10,12,15,07,12.70
2014,10,12,15,08,12.80
2014,10,12,15,09,12.80
2014,10,12,15,10,12.90
2014,10,12,15,11,12.90
2014,10,12,15,12,12.80
2014,10,12,15,13,12.80
2014,10,12,15,14,12.90
2014,10,12,15,15,13.10
2014,10,12,15,16,13.30
2014,10,12,15,17,13.30
2014,10,12,15,18,13.20
2014,10,12,15,19,13.20
2014,10,12,15,20,13.10
2014,10,12,15,21,13.10
2014,10,12,15,22,13.10
2014,10,12,15,23,13.10
2014,10,12,15,24,13.00
2014,10,12,15,25,12.90
2014,10,12,15,26,12.90
2014,10,12,15,27,12.90
2014,10,12,15,28,12.90
2014,10,12,15,29,12.90
2014,10,12,15,30,13.00
2014,10,12,15,31,13.10
2014,10,12,15,32,13.20
2014,10,12,15,33,13.30
2014,10,12,15,34,13.30
2014,10,12,15,35,13.30
2014,10,12,15,36,13.30
2014,10,12,15,37,13.30
2014,10,12,15,38,13.40
2014,10,12,15,39,13.50
2014,10,12,15,40,13.50
2014,10,12,15,41,13.60
2014,10,12,15,42,13.60
2014,10,12,15,43,13.60
2014,10,12,15,44,13.70
2014,10,12,15,45,13.70
2014,10,12,15,46,13.70
2014,10,12,15,47,13.70
2014,10,12,15,48,13.60
2014,10,12,15,49,13.60
2014,10,12,15,50,13.70
2014,10,12,15,51,13.70
2014,10,12,15,52,13.70
2014,10,12,15,53,13.60
2014,10,12,15,54,13.60
2014,10,12,15,55,13.50
2014,10,12,15,56,13.50
2014,10,12,15,57,13.50
2014,10,12,15,58,13.50
2014,10,12,15,59,13.60
2014,10,12,16,00,13.60
2014,10,12,16,01,13.60
2014,10,12,16,02,13.70
2014,10,12,16,03,13.70
2014,10,12,16,04,13.60
2014,10,12,16,05,13.60
2014,10,12,16,06,13.50
2014,10,12,16,07,13.40
2014,10,12,16,08,13.40
2014,10,12,16,09,13.30
2014,10,12,16,10,13.20
2014,10,12,16,11,13.10
2014,10,12,16,12,13.10
2014,10,12,16,13,13.00
2014,10,12,16,14,12.90
2014,10,12,16,15,12.90
2014,10,12,16,16,12.90
2014,10,12,16,17,12.80
2014,10,12,16,18,12.90
2014,10,12,16,19,12.90
2014,10,12,16,20,12.90
2014,10,12,16,21,12.90
2014,10,12,16,22,12.90
2014,10,12,16,23,12.90
2014,10,12,16,24,13.00
2014,10,12,16,25,13.10
2014,10,12,16,26,13.20
2014,10,12,16,27,13.30
2014,10,12,16,28,13.30
2014,10,12,16,29,13.30
2014,10,12,16,30,13.30
2014,10,12,16,31,13.30
2014,10,12,16,32,13.30
2014,10,12,16,33,13.30
2014,10,12,16,34,13.20
2014,10,12,16,35,13.30
2014,10,12,16,36,13.30
2014,10,12,16,37,13.30
2014,10,12,16,38,13.40
2014,10,12,16,39,13.50
2014,10,12,16,40,13.60
2014,10,12,16,41,13.70
2014,10,12,16,42,13.80
2014,10,12,16,43,13.80
2014,10,12,16,44,13.80
2014,10,12,16,45,13.80
2014,10,12,16,46,13.70
2014,10,12,16,47,13.80
2014,10,12,16,48,13.70
2014,10,12,16,49,13.70
2014,10,12,16,50,13.60
2014,10,12,16,51,13.50
2014,10,12,16,52,13.40
2014,10,12,16,53,13.40
2014,10,12,16,54,13.50
2014,10,12,16,55,13.60
2014,10,12,16,56,13.70
2014,10,12,16,57,13.70
2014,10,12,16,58,13.80
2014,10,12,16,59,13.80
2014,10,12,17,00,13.80
2014,10,12,17,01,13.80
2014,10,12,17,02,13.70
2014,10,12,17,03,13.60
2014,10,12,17,04,13.50
2014,10,12,17,05,13.40
2014,10,12,17,06,13.30
2014,10,12,17,07,13.20
2014,10,12,17,08,13.20
2014,10,12,17,09,13.10
2014,10,12,17,10,13.00
2014,10,12,17,11,12.90
2014,10,12,17,12,12.90
2014,10,12,17,13,12.80
2014,10,12,17,14,12.80
2014,10,12,17,15,12.80
2014,10,12,17,16,12.80
2014,10,12,17,17,12.80
2014,10,12,17,18,12.70
2014,10,12,17,19,12.70